Home > Weather > Khartoum > Past weeks

Flag for Sudan Past Weather in Khartoum, Sudan — Yesterday and Last 2 Weeks

Now
97 °F

Extremely hot.


Feels Like: 97 °F
Forecast: 86 / 103 °F
Wind: 17 mph from Southwest

Location: Khartoum Airport

Current Time: Jul 27, 2016 at 2:43:21 PM

Latest Report: Jul 27, 2016 at 2:00 PM


Visibility: N/A

Pressure: 29.77 "Hg

Humidity: 30%

Dew Point: 61 °F

Location of KhartoumLocation

Past Weather in Khartoum — Graph

°F

Khartoum Temperature Yesterday

Maximum temperature yesterday: 99 °F (at 4:00 PM)
Minimum temperature yesterday: 82 °F (at 5:00 AM)
Average temperature yesterday: 91 °F

High & Low Weather Summary for the Past Weeks

 TemperatureHumidityPressure
High106 °F (Jul 23, 3:00 PM)94% (Jul 14, 12:00 AM)29.98 "Hg (Jul 14, 12:00 AM)
Low70 °F (Jul 20, 4:00 AM)11% (Jul 23, 7:00 PM)29.65 "Hg (Jul 23, 4:30 PM)
Average89 °F47%29.82 "Hg
* Reported Jul 12 1:00 PM — Jul 27 1:00 PM, Khartoum, Weather by CustomWeather, © 2016

Note: Actual official high and low records may vary slightly from our data, if they occured in-between our weather recording intervals... More about our weather records

Advertising

Khartoum Weather History for the Previous 24 Hours

Scroll right to see more
 ConditionsComfort  
Time TempWeatherWind HumidityBarometerVisibility
1:00 PM
Wed, Jul 27
95 °FPassing clouds.16 mph39%29.80 "HgN/A
12:30 PM91 °FPassing clouds.8 mph46%29.80 "HgN/A
12:00 PM95 °FThunderstorms. Partly sunny.10 mph34%29.86 "Hg4 mi
11:30 AM93 °FSunny.12 mph36%29.83 "Hg10 mi
11:00 AM93 °FSunny.14 mph36%29.83 "Hg10 mi
10:30 AM91 °FSunny.14 mph41%29.83 "Hg10 mi
10:00 AM91 °FHot.14 mph41%29.83 "HgN/A
9:30 AM90 °FSunny.12 mph43%29.83 "Hg10 mi
9:00 AM90 °FSunny.12 mph43%29.83 "Hg10 mi
8:30 AM90 °FSunny.12 mph43%29.83 "Hg10 mi
8:00 AM88 °FSunny.10 mph43%29.80 "Hg10 mi
7:30 AM88 °FSunny.10 mph43%29.80 "Hg10 mi
7:00 AM88 °FSunny.12 mph43%29.80 "Hg10 mi
6:30 AM90 °FSunny.10 mph41%29.80 "Hg10 mi
6:00 AM90 °FClear.13 mph41%29.77 "Hg10 mi
5:30 AM90 °FClear.9 mph41%29.80 "Hg10 mi
5:00 AM90 °FClear.14 mph41%29.80 "Hg10 mi
4:30 AM90 °FClear.9 mph41%29.80 "Hg10 mi
4:00 AM90 °FClear.10 mph43%29.77 "Hg10 mi
3:30 AM90 °FClear.8 mph41%29.80 "Hg10 mi
3:00 AM90 °FClear.9 mph41%29.83 "Hg10 mi
2:30 AM91 °FClear.12 mph36%29.80 "Hg10 mi
2:00 AM91 °FClear.5 mph36%29.80 "Hg10 mi
1:30 AM93 °FClear.3 mph32%29.80 "Hg10 mi
1:00 AM93 °FClear.3 mph32%29.80 "Hg10 mi
12:30 AM95 °FClear.5 mph30%29.80 "Hg10 mi
11:30 PM
Tue, Jul 26
95 °FClear.3 mph30%29.83 "Hg10 mi
11:00 PM95 °FClear.5 mph30%29.83 "Hg10 mi
10:30 PM95 °FClear.6 mph30%29.80 "Hg10 mi
10:00 PM95 °FClear.5 mph30%29.80 "Hg10 mi
9:30 PM95 °FClear.5 mph32%29.80 "Hg10 mi
9:00 PM95 °FClear.8 mph30%29.77 "Hg10 mi
8:30 PM97 °FClear.9 mph27%29.77 "Hg10 mi
8:00 PM97 °FClear.7 mph27%29.77 "Hg10 mi
7:30 PM97 °FClear.9 mph27%29.74 "Hg10 mi
7:00 PM97 °FSunny.12 mph27%29.74 "Hg10 mi
6:30 PM99 °FPassing clouds.9 mph27%29.74 "HgN/A
6:00 PM99 °FPassing clouds.12 mph27%29.74 "HgN/A
5:30 PM99 °FPassing clouds.8 mph27%29.74 "HgN/A
5:00 PM99 °FPassing clouds.13 mph27%29.74 "HgN/A
4:30 PM99 °FPassing clouds.12 mph27%29.74 "HgN/A
4:00 PM99 °FPassing clouds.12 mph27%29.77 "HgN/A
3:30 PM97 °FPassing clouds.12 mph30%29.77 "HgN/A
3:00 PM97 °FPassing clouds.13 mph30%29.80 "HgN/A
2:30 PM97 °FPassing clouds.10 mph30%29.80 "HgN/A
2:00 PM97 °FPassing clouds.12 mph30%29.80 "HgN/A
Weather by CustomWeather, © 2016

See weather overviewHow to use our weather pages